Regional Weather Roundup
Issued by NWS Sioux Falls, SD

Home | Current Version | Previous Version | Graphics & Text | Print | Product List | Glossary Off
Versions: 1 2 3 4 5 6 7 8 9 10 11 12 13 14 15 16 17 18 19 20 21 22 23 24 25 26 27 28 29 30 31 32 33 34 35 36 37 38 39 40 41 42 43 44 45 46 47 48 49 50

135
ASUS43 KFSD 242110
RWRFSD

WEATHER ROUNDUP FOR SE SOUTH DAKOTA/SW MINNESOTA/NW IOWA
NATIONAL WEATHER SERVICE SIOUX FALLS SD
400 PM CDT TUE MAY 24 2016

NOTE: "FAIR" INDICATES FEW OR NO CLOUDS BELOW 12,000 FEET WITH NO
SIGNIFICANT WEATHER AND OR OBSTRUCTIONS TO VISIBILITY.


SDZ038>040-050-052>070-242200-
SOUTHEAST SOUTH DAKOTA

CITY           SKY/WX    TMP DP  RH WIND       PRES   REMARKS
BROOKINGS      SUNNY     83  45  26 W10       29.86F
CHAMBERLAIN    SUNNY     82  47  29 SE5       29.85F
HURON          SUNNY     83  46  27 MISG      29.84S
MADISON        FAIR      81  45  28 W8G17     29.88S
MITCHELL       SUNNY     84  46  26 S6        29.85S
SIOUX FALLS    MOSUNNY   83  51  33 S3        29.87S
WINNER         FAIR      82  46  28 S3        29.85F
YANKTON        SUNNY     82  52  34 CALM      29.84S
$$

MNZ071-072-080-081-089-090-097-098-242200-
SOUTHWEST MINNESOTA

CITY           SKY/WX    TMP DP  RH WIND       PRES   REMARKS
FAIRMONT       SUNNY     81  57  44 E3        29.90R
JACKSON        SUNNY     81  55  41 S6        29.91S
LUVERNE        SUNNY     82  41  23 SW3       29.88S
MARSHALL       SUNNY     85  42  22 W15       29.85F
MONTEVIDEO     MOSUNNY   90  55  31 CALM      29.85F
PIPESTONE      SUNNY     82  37  20 W7        29.89S
REDWOOD FALLS  SUNNY     83  59  44 S7        29.84F
TRACY          MOSUNNY   88  41  19 SW10G16   29.87S
WINDOM         SUNNY     81  57  44 CALM      29.90R
WORTHINGTON    MOSUNNY   79  62  56 S7        29.91R
$$

IAZ001>003-012>014-020>022-031-032-NEZ013-014-SDZ071-242200-
NORTHWEST IOWA

CITY           SKY/WX    TMP DP  RH WIND       PRES   REMARKS
CHEROKEE       SUNNY     80  67  63 W3        29.89S
DENISON        MOSUNNY   79  64  61 CALM      29.88S
ESTHERVILLE    PTSUNNY   80  60  50 VRB3      29.90R
LE MARS        SUNNY     81  64  57 CALM      29.89S
ORANGE CITY    SUNNY     81  63  54 SW3       29.89S
SHELDON        MOSUNNY   81  64  57 CALM      29.88S
SIOUX CITY     SUNNY     82  68  62 SE9       29.87S
SPENCER        SUNNY     80  59  48 SW3       29.90S
STORM LAKE     CLOUDY    81  61  50 VRB6      29.91S
$$

ABBREVIATIONS USED IN REMARKS
   TC - TEMPERATURE IN CELSIUS
  WCI - WIND CHILL INDEX
   HX - HEAT INDEX
  VSB - VISIBILITY





USA.gov is the U.S. government's official web portal to all federal, state and local government web resources and services.